�������l�o���
Date,Time,MP-1(��Sv/h),MP-2(��Sv/h),MP-3(��Sv/h),MP-4(��Sv/h),MP-5(��Sv/h),MP-6(��Sv/h),MP-7(��Sv/h),����,����(m/s),���J
2021/10/09,00:00,0.160,0.145,0.229,0.223,0.227,0.124,0.079,�k�k��,4.5,��
2021/10/09,00:10,0.159,0.145,0.231,0.223,0.228,0.125,0.080,�k,5.2,��
2021/10/09,00:20,0.160,0.145,0.228,0.223,0.229,0.125,0.078,�k�k��,4.8,��
2021/10/09,00:30,0.160,0.146,0.229,0.223,0.227,0.125,0.080,�k,4.4,��
2021/10/09,00:40,0.158,0.144,0.229,0.221,0.229,0.124,0.080,�k,4.4,��
2021/10/09,00:50,0.160,0.145,0.228,0.225,0.228,0.125,0.079,�k�k��,3.8,��
2021/10/09,01:00,0.158,0.144,0.230,0.223,0.227,0.125,0.080,�k,4.3,��
2021/10/09,01:10,0.159,0.145,0.228,0.223,0.231,0.124,0.079,�k�k��,3.7,��
2021/10/09,01:20,0.160,0.144,0.229,0.224,0.228,0.126,0.079,�k�k��,4.2,��
2021/10/09,01:30,0.158,0.145,0.230,0.221,0.229,0.124,0.078,�k�k��,4.7,��
2021/10/09,01:40,0.159,0.145,0.228,0.224,0.229,0.124,0.079,�k�k��,4.9,��
2021/10/09,01:50,0.159,0.144,0.230,0.223,0.226,0.125,0.079,�k�k��,5.2,��
2021/10/09,02:00,0.160,0.145,0.228,0.222,0.229,0.125,0.078,�k�k��,4.8,��
2021/10/09,02:10,0.159,0.144,0.228,0.223,0.228,0.125,0.079,�k�k��,5.0,��
2021/10/09,02:20,0.159,0.144,0.228,0.221,0.227,0.125,0.079,�k,5.0,�L
2021/10/09,02:30,0.160,0.143,0.228,0.223,0.229,0.125,0.079,�k�k��,4.9,��
2021/10/09,02:40,0.159,0.144,0.231,0.224,0.226,0.125,0.079,�k,4.8,��
2021/10/09,02:50,0.158,0.145,0.227,0.222,0.228,0.124,0.079,�k,4.8,��
2021/10/09,03:00,0.161,0.145,0.229,0.223,0.229,0.123,0.079,�k,4.8,��
2021/10/09,03:10,0.160,0.144,0.230,0.222,0.226,0.125,0.079,�k,4.5,��
2021/10/09,03:20,0.159,0.145,0.228,0.222,0.229,0.125,0.079,�k,5.0,��
2021/10/09,03:30,0.160,0.144,0.229,0.224,0.228,0.124,0.079,�k,5.0,��
2021/10/09,03:40,0.158,0.144,0.228,0.221,0.226,0.124,0.079,�k,5.4,�L
2021/10/09,03:50,0.160,0.145,0.229,0.224,0.229,0.123,0.079,�k,5.0,�L
2021/10/09,04:00,0.160,0.144,0.229,0.221,0.227,0.124,0.079,�k,4.7,�L
2021/10/09,04:10,0.158,0.145,0.228,0.223,0.228,0.125,0.079,�k,5.3,�L
2021/10/09,04:20,0.160,0.145,0.230,0.224,0.229,0.123,0.079,�k�k��,4.1,�L
2021/10/09,04:30,0.159,0.145,0.228,0.222,0.226,0.125,0.080,�k,4.5,��
2021/10/09,04:40,0.160,0.145,0.230,0.225,0.230,0.124,0.079,�k�k��,3.6,��
2021/10/09,04:50,0.159,0.145,0.230,0.222,0.227,0.124,0.080,�k,3.6,��
2021/10/09,05:00,0.159,0.146,0.230,0.223,0.228,0.125,0.079,�k�k��,3.4,��
2021/10/09,05:10,0.162,0.144,0.228,0.223,0.229,0.124,0.079,�k�k��,3.1,��
2021/10/09,05:20,0.159,0.144,0.229,0.222,0.226,0.125,0.079,�k�k��,3.3,��
2021/10/09,05:30,0.160,0.143,0.231,0.223,0.229,0.125,0.079,�k�k��,3.6,��
2021/10/09,05:40,0.160,0.145,0.227,0.222,0.226,0.124,0.080,�k�k��,3.8,��
2021/10/09,05:50,0.160,0.145,0.231,0.223,0.228,0.125,0.079,�k�k��,3.9,��
2021/10/09,06:00,0.160,0.145,0.229,0.222,0.227,0.125,0.079,�k�k��,4.5,��
2021/10/09,06:10,0.158,0.145,0.229,0.222,0.226,0.124,0.079,�k�k��,4.4,��
2021/10/09,06:20,0.160,0.144,0.228,0.223,0.229,0.124,0.078,�k�k��,4.9,�L
2021/10/09,06:30,0.159,0.146,0.229,0.222,0.225,0.124,0.079,�k�k��,4.5,�L
2021/10/09,06:40,0.159,0.143,0.229,0.223,0.229,0.125,0.079,�k�k��,5.2,��
2021/10/09,06:50,0.160,0.145,0.228,0.222,0.228,0.125,0.078,�k�k��,5.1,��
2021/10/09,07:00,0.159,0.143,0.231,0.223,0.228,0.123,0.079,�k,7.1,�L
2021/10/09,07:10,0.160,0.145,0.228,0.222,0.230,0.125,0.078,�k�k��,5.5,��
2021/10/09,07:20,0.159,0.145,0.229,0.221,0.226,0.124,0.079,�k�k��,5.2,�L
2021/10/09,07:30,0.159,0.144,0.228,0.223,0.229,0.124,0.079,�k�k��,5.5,�L
2021/10/09,07:40,0.159,0.145,0.229,0.221,0.227,0.124,0.079,�k�k��,6.1,��
2021/10/09,07:50,0.159,0.143,0.229,0.223,0.227,0.124,0.079,�k�k��,5.5,�L
2021/10/09,08:00,0.160,0.145,0.228,0.222,0.229,0.124,0.078,�k�k��,5.6,�L
2021/10/09,08:10,0.159,0.144,0.230,0.222,0.226,0.124,0.079,�k�k��,5.6,�L
2021/10/09,08:20,0.160,0.145,0.228,0.224,0.229,0.124,0.080,�k�k��,5.3,�L
2021/10/09,08:30,0.160,0.145,0.230,0.222,0.229,0.126,0.080,�k�k��,5.8,�L
2021/10/09,08:40,0.159,0.146,0.229,0.224,0.229,0.126,0.082,�k,3.3,�L
2021/10/09,08:50,0.161,0.146,0.231,0.222,0.229,0.126,0.081,�k�k��,5.6,�L
2021/10/09,09:00,0.160,0.145,0.229,0.224,0.228,0.127,0.081,�k��,4.7,�L
2021/10/09,09:10,0.161,0.147,0.228,0.223,0.230,0.125,0.080,�k��,7.7,�L
2021/10/09,09:20,0.160,0.145,0.231,0.221,0.228,0.125,0.081,�k��,6.1,�L
2021/10/09,09:30,0.159,0.145,0.228,0.223,0.229,0.125,0.080,�k��,9.0,�L
2021/10/09,09:40,0.161,0.146,0.230,0.222,0.229,0.124,0.079,�k��,7.6,�L
2021/10/09,09:50,0.159,0.146,0.228,0.224,0.227,0.126,0.080,�k��,7.3,�L
2021/10/09,10:00,0.160,0.147,0.230,0.221,0.229,0.125,0.080,�k��,7.4,�L
2021/10/09,10:10,0.159,0.145,0.228,0.222,0.226,0.125,0.080,�k��,7.0,�L
2021/10/09,10:20,0.159,0.145,0.229,0.223,0.228,0.125,0.079,���k��,6.9,�L
2021/10/09,10:30,0.160,0.144,0.230,0.221,0.227,0.124,0.079,�k��,7.6,�L
2021/10/09,10:40,0.159,0.146,0.228,0.222,0.227,0.125,0.080,�k��,6.7,�L
2021/10/09,10:50,0.160,0.145,0.230,0.221,0.229,0.124,0.079,�k��,7.5,�L
2021/10/09,11:00,0.160,0.145,0.228,0.221,0.225,0.124,0.079,�k��,7.1,�L
2021/10/09,11:10,0.160,0.144,0.228,0.222,0.229,0.125,0.079,�k��,6.5,�L
2021/10/09,11:20,0.159,0.144,0.229,0.221,0.227,0.124,0.078,�k��,6.8,�L
2021/10/09,11:30,0.159,0.144,0.228,0.223,0.227,0.125,0.079,�k��,6.4,�L
2021/10/09,11:40,0.159,0.144,0.229,0.222,0.229,0.125,0.078,�k��,6.8,��
2021/10/09,11:50,0.159,0.145,0.228,0.223,0.226,0.124,0.079,�k��,7.5,��
2021/10/09,12:00,0.160,0.145,0.230,0.222,0.228,0.124,0.080,�k��,6.9,�L
2021/10/09,12:10,0.160,0.146,0.227,0.222,0.227,0.124,0.079,�k��,6.1,�L
2021/10/09,12:20,0.159,0.144,0.230,0.224,0.227,0.124,0.078,�k��,6.7,�L
2021/10/09,12:30,0.160,0.145,0.228,0.221,0.228,0.125,0.078,�k��,6.3,�L
2021/10/09,12:40,0.158,0.144,0.229,0.223,0.226,0.123,0.079,�k��,4.6,��
2021/10/09,12:50,0.160,0.144,0.229,0.221,0.229,0.125,0.079,�k��,5.3,��
2021/10/09,13:00,0.158,0.146,0.227,0.222,0.225,0.124,0.078,�k�k��,3.5,�L
2021/10/09,13:10,0.161,0.144,0.230,0.224,0.227,0.124,0.079,�k��,4.2,��
2021/10/09,13:20,0.160,0.145,0.228,0.221,0.228,0.125,0.079,�k�k��,3.7,��
2021/10/09,13:30,0.160,0.144,0.229,0.224,0.226,0.124,0.079,�k�k��,3.8,��
2021/10/09,13:40,0.159,0.145,0.227,0.221,0.228,0.125,0.078,�k��,3.4,��
2021/10/09,13:50,0.159,0.145,0.228,0.223,0.226,0.124,0.078,�k��,2.7,��
2021/10/09,14:00,0.159,0.144,0.230,0.222,0.228,0.124,0.079,�k�k��,2.4,��
2021/10/09,14:10,0.158,0.145,0.228,0.222,0.228,0.125,0.078,�k�k��,2.1,��
2021/10/09,14:20,0.159,0.144,0.230,0.223,0.226,0.124,0.079,�k�k��,1.5,�L
2021/10/09,14:30,0.159,0.145,0.227,0.222,0.229,0.125,0.078,�k,1.9,��
2021/10/09,14:40,0.160,0.144,0.230,0.223,0.226,0.125,0.079,�k,1.9,�L
2021/10/09,14:50,0.159,0.145,0.228,0.221,0.228,0.124,0.079,�k�k��,1.7,�L
2021/10/09,15:00,0.158,0.144,0.229,0.223,0.227,0.125,0.078,�k�k��,2.5,�L
2021/10/09,15:10,0.162,0.146,0.228,0.223,0.228,0.125,0.080,�k��,3.4,�L
2021/10/09,15:20,0.160,0.146,0.231,0.225,0.229,0.127,0.082,�k�k��,3.1,�L
2021/10/09,15:30,0.162,0.148,0.230,0.225,0.230,0.128,0.083,�k�k��,4.3,�L
2021/10/09,15:40,0.162,0.149,0.232,0.224,0.231,0.128,0.082,�k�k��,3.4,�L
2021/10/09,15:50,0.163,0.149,0.232,0.226,0.230,0.129,0.082,�k,3.8,�L
2021/10/09,16:00,0.164,0.147,0.232,0.225,0.232,0.127,0.083,�k,3.4,�L
2021/10/09,16:10,0.162,0.149,0.231,0.226,0.230,0.128,0.083,�k,3.4,�L
2021/10/09,16:20,0.163,0.148,0.231,0.224,0.231,0.127,0.084,�k,3.3,�L
2021/10/09,16:30,0.162,0.148,0.231,0.226,0.227,0.128,0.083,�k,2.9,�L
2021/10/09,16:40,0.162,0.147,0.230,0.223,0.229,0.127,0.081,�k�k��,3.8,�L
2021/10/09,16:50,0.160,0.147,0.229,0.225,0.226,0.126,0.081,�k�k��,3.2,�L
2021/10/09,17:00,0.162,0.145,0.228,0.220,0.229,0.126,0.080,�k��,3.9,�L
2021/10/09,17:10,0.159,0.147,0.229,0.224,0.228,0.126,0.081,�k�k��,2.5,�L
2021/10/09,17:20,0.160,0.145,0.228,0.222,0.228,0.126,0.081,�k�k��,2.7,�L
2021/10/09,17:30,0.159,0.146,0.228,0.223,0.229,0.125,0.080,�k�k��,2.3,�L
2021/10/09,17:40,0.160,0.145,0.228,0.221,0.227,0.126,0.080,�k�k��,2.2,�L
2021/10/09,17:50,0.158,0.146,0.228,0.223,0.228,0.125,0.079,�k�k��,2.9,�L
2021/10/09,18:00,0.161,0.144,0.227,0.220,0.225,0.126,0.079,�k,2.7,�L
2021/10/09,18:10,0.160,0.145,0.228,0.220,0.228,0.123,0.079,�k,2.4,�L
2021/10/09,18:20,0.159,0.144,0.227,0.219,0.225,0.124,0.078,�k,1.8,�L
2021/10/09,18:30,0.159,0.145,0.226,0.221,0.228,0.123,0.080,�k,2.1,�L
2021/10/09,18:40,0.159,0.143,0.226,0.220,0.225,0.124,0.079,�k,1.2,�L
2021/10/09,18:50,0.159,0.145,0.228,0.220,0.228,0.123,0.078,�k,1.0,�L
2021/10/09,19:00,0.157,0.144,0.226,0.219,0.225,0.123,0.078,�k��,2.1,�L
2021/10/09,19:10,0.160,0.145,0.228,0.220,0.228,0.123,0.079,�k��,1.8,�L
2021/10/09,19:20,0.157,0.144,0.226,0.220,0.225,0.123,0.078,�k��,2.2,�L
2021/10/09,19:30,0.159,0.145,0.228,0.219,0.227,0.124,0.077,���k��,3.5,�L
2021/10/09,19:40,0.157,0.144,0.225,0.218,0.227,0.123,0.078,��,4.0,�L
2021/10/09,19:50,0.159,0.143,0.226,0.220,0.226,0.123,0.078,���k��,3.6,�L
2021/10/09,20:00,0.158,0.143,0.225,0.220,0.226,0.124,0.078,���k��,3.0,�L
2021/10/09,20:10,0.158,0.144,0.227,0.219,0.226,0.122,0.078,���k��,3.6,�L
2021/10/09,20:20,0.159,0.143,0.225,0.219,0.228,0.124,0.078,���k��,2.1,�L
2021/10/09,20:30,0.158,0.144,0.227,0.219,0.225,0.123,0.078,���k��,3.0,�L
2021/10/09,20:40,0.159,0.144,0.226,0.220,0.227,0.124,0.078,���k��,2.1,�L
2021/10/09,20:50,0.158,0.144,0.227,0.220,0.224,0.123,0.078,���k��,2.1,�L
2021/10/09,21:00,0.160,0.144,0.225,0.219,0.228,0.123,0.078,���k��,2.5,�L
2021/10/09,21:10,0.158,0.144,0.227,0.218,0.226,0.122,0.078,���k��,2.0,�L
2021/10/09,21:20,0.159,0.145,0.226,0.221,0.225,0.123,0.078,��,1.8,�L
2021/10/09,21:30,0.159,0.144,0.226,0.220,0.225,0.123,0.079,��,0.9,�L
2021/10/09,21:40,0.158,0.144,0.226,0.220,0.225,0.122,0.078,���k��,1.1,�L
2021/10/09,21:50,0.160,0.143,0.226,0.219,0.228,0.123,0.078,���k��,1.6,�L
2021/10/09,22:00,0.159,0.144,0.226,0.221,0.225,0.123,0.078,���k��,0.8,�L
2021/10/09,22:10,0.160,0.143,0.226,0.218,0.226,0.124,0.079,���k��,1.0,�L
2021/10/09,22:20,0.158,0.144,0.227,0.221,0.225,0.123,0.078,�k,0.7,�L
2021/10/09,22:30,0.159,0.143,0.226,0.220,0.227,0.123,0.078,�k��,0.9,�L
2021/10/09,22:40,0.158,0.144,0.227,0.220,0.225,0.123,0.078,�k��,0.8,�L
2021/10/09,22:50,0.160,0.143,0.226,0.219,0.227,0.123,0.078,�k��,1.0,�L
2021/10/09,23:00,0.158,0.144,0.227,0.220,0.225,0.123,0.078,�k,1.1,�L
2021/10/09,23:10,0.159,0.144,0.226,0.219,0.228,0.123,0.078,�k,0.8,�L
2021/10/09,23:20,0.159,0.145,0.228,0.221,0.226,0.124,0.078,�k�k��,1.1,�L
2021/10/09,23:30,0.159,0.143,0.226,0.220,0.225,0.123,0.078,�k,0.8,�L
2021/10/09,23:40,0.158,0.144,0.228,0.220,0.226,0.124,0.079,�k�k��,0.8,�L
2021/10/09,23:50,0.158,0.144,0.225,0.220,0.227,0.123,0.079,�k�k��,0.7,�L
